TimeAEST,TemperatureF,Dew PointF,Humidity,Sea Level PressureIn,VisibilityMPH,Wind Direction,Wind SpeedMPH,Gust SpeedMPH,PrecipitationIn,Events,Conditions,WindDirDegrees,DateUTC
12:00 AM,55,45,59,29.72,19,NNE,12.7,,,Rain,Light Rain,30,2013-04-21 14:00:00
12:00 AM,55.4,44.6,67,29.71,6.2,NNE,12.7,-,N/A,Rain,Light Rain,30,2013-04-21 14:00:00
12:30 AM,53.6,44.6,72,29.68,6.2,NNE,17.3,-,N/A,Rain,Light Rain,20,2013-04-21 14:30:00
1:00 AM,54,44,60,29.70,,North,17.3,,,,,10,2013-04-21 15:00:00
1:00 AM,53.6,44.6,72,29.68,6.2,North,17.3,-,N/A,Rain,Light Rain,10,2013-04-21 15:00:00
1:30 AM,53.6,44.6,72,29.68,6.2,North,18.4,-,N/A,,Mostly Cloudy,10,2013-04-21 15:30:00
2:00 AM,53.6,44.6,72,29.68,6.2,North,21.9,-,N/A,,Mostly Cloudy,10,2013-04-21 16:00:00
2:30 AM,51.8,44.6,76,29.68,6.2,North,23.0,-,N/A,,Mostly Cloudy,360,2013-04-21 16:30:00
3:00 AM,52,46,72,29.68,19,North,19.6,,,,Partly Cloudy,10,2013-04-21 17:00:00
3:00 AM,51.8,46.4,82,29.65,6.2,North,19.6,-,N/A,,Mostly Cloudy,10,2013-04-21 17:00:00
3:18 AM,51.8,46.4,82,29.65,6.2,North,24.2,35.7,N/A,,Mostly Cloudy,10,2013-04-21 17:18:00
3:30 AM,51.8,46.4,82,29.65,6.2,North,25.3,-,N/A,,Mostly Cloudy,10,2013-04-21 17:30:00
4:00 AM,52,47,77,29.68,,North,17.3,,,,,0,2013-04-21 18:00:00
4:00 AM,51.8,46.4,82,29.68,6.2,North,17.3,-,N/A,,Mostly Cloudy,360,2013-04-21 18:00:00
4:30 AM,51.8,46.4,82,29.68,6.2,North,20.7,-,N/A,,Mostly Cloudy,360,2013-04-21 18:30:00
5:00 AM,51.8,46.4,82,29.65,6.2,North,24.2,-,N/A,,Mostly Cloudy,360,2013-04-21 19:00:00
5:30 AM,51.8,48.2,88,29.65,6.2,North,23.0,-,N/A,,Mostly Cloudy,10,2013-04-21 19:30:00
6:00 AM,52,48,82,29.68,19,North,21.9,,,Rain,Light Rain,0,2013-04-21 20:00:00
6:00 AM,51.8,48.2,88,29.65,6.2,North,21.9,-,N/A,Rain,Light Rain,360,2013-04-21 20:00:00
6:30 AM,51.8,48.2,88,29.68,6.2,North,25.3,-,N/A,Rain,Light Rain,360,2013-04-21 20:30:00
7:00 AM,52,49,86,29.69,,North,24.2,,,,,0,2013-04-21 21:00:00
7:00 AM,51.8,50.0,94,29.68,6.2,North,24.2,-,N/A,,Mostly Cloudy,360,2013-04-21 21:00:00
7:30 AM,51.8,50.0,94,29.68,6.2,North,25.3,-,N/A,,Mostly Cloudy,360,2013-04-21 21:30:00
8:00 AM,51.8,50.0,94,29.71,6.2,North,24.2,-,N/A,,Mostly Cloudy,360,2013-04-21 22:00:00
8:30 AM,53.6,50.0,88,29.71,6.2,North,23.0,-,N/A,,Mostly Cloudy,360,2013-04-21 22:30:00
9:00 AM,53,51,88,29.73,6,North,23.0,,,Rain,Light Rain,0,2013-04-21 23:00:00
9:00 AM,53.6,50.0,88,29.71,5.6,North,23.0,-,N/A,Rain,Light Rain,360,2013-04-21 23:00:00
9:30 AM,55.4,51.8,88,29.71,6.2,North,21.9,-,N/A,,Mostly Cloudy,360,2013-04-21 23:30:00
10:00 AM,55,52,84,29.74,,North,20.7,,,,,0,2013-04-22 00:00:00
10:00 AM,55.4,51.8,88,29.74,6.2,North,20.7,-,N/A,Rain,Light Rain,360,2013-04-22 00:00:00
10:30 AM,57.2,53.6,88,29.74,4.3,North,21.9,-,N/A,Rain,Light Rain,360,2013-04-22 00:30:00
11:00 AM,57.2,51.8,82,29.74,6.2,North,21.9,-,N/A,,Mostly Cloudy,360,2013-04-22 01:00:00
11:30 AM,59.0,51.8,77,29.74,6.2,North,19.6,-,N/A,,Mostly Cloudy,360,2013-04-22 01:30:00
12:00 PM,58,52,73,29.74,4,North,17.3,,,Rain,Light Rain Showers,10,2013-04-22 02:00:00
12:00 PM,57.2,51.8,82,29.74,4.3,North,17.3,-,N/A,Rain,Light Rain Showers,10,2013-04-22 02:00:00
12:30 PM,57.2,53.6,88,29.74,6.2,North,11.5,-,N/A,,Mostly Cloudy,360,2013-04-22 02:30:00
1:00 PM,58,53,76,29.74,,North,13.8,,,,,10,2013-04-22 03:00:00
1:00 PM,57.2,51.8,82,29.74,6.2,North,13.8,-,N/A,,Mostly Cloudy,10,2013-04-22 03:00:00
1:30 PM,59.0,53.6,82,29.74,5.0,North,18.4,-,N/A,Rain,Light Rain Showers,10,2013-04-22 03:30:00
2:00 PM,59.0,53.6,82,29.74,6.2,North,12.7,-,N/A,,Mostly Cloudy,10,2013-04-22 04:00:00
2:30 PM,60.8,53.6,77,29.74,6.2,NW,17.3,-,N/A,Rain,Light Rain Showers,320,2013-04-22 04:30:00
3:00 PM,62,53,64,29.74,16,North,12.7,,,,Mostly Cloudy,10,2013-04-22 05:00:00
3:00 PM,60.8,53.6,77,29.74,6.2,North,12.7,-,N/A,,Scattered Clouds,10,2013-04-22 05:00:00
3:30 PM,62.6,51.8,68,29.74,6.2,North,11.5,-,N/A,,Scattered Clouds,10,2013-04-22 05:30:00
4:00 PM,64,46,41,29.74,,North,13.8,,,,,350,2013-04-22 06:00:00
4:00 PM,64.4,46.4,52,29.74,6.2,North,13.8,-,N/A,,Mostly Cloudy,350,2013-04-22 06:00:00
4:30 PM,62.6,46.4,55,29.74,6.2,NNW,11.5,-,N/A,,Mostly Cloudy,340,2013-04-22 06:30:00
5:00 PM,62.6,46.4,55,29.74,6.2,North,12.7,-,N/A,,Mostly Cloudy,350,2013-04-22 07:00:00
5:30 PM,60.8,50.0,68,29.74,6.2,North,12.7,-,N/A,,Mostly Cloudy,360,2013-04-22 07:30:00
6:00 PM,59,52,71,29.77,25,North,16.1,,,,Partly Cloudy,10,2013-04-22 08:00:00
6:00 PM,59.0,51.8,77,29.77,-9999.0,North,16.1,-,N/A,,Clear,10,2013-04-22 08:00:00
6:30 PM,57.2,51.8,82,29.77,-9999.0,North,17.3,-,N/A,,Clear,360,2013-04-22 08:30:00
7:00 PM,58,51,72,29.79,,North,13.8,,,,,0,2013-04-22 09:00:00
7:00 PM,57.2,51.8,82,29.77,-9999.0,North,13.8,-,N/A,,Clear,360,2013-04-22 09:00:00
7:30 PM,57.2,51.8,82,29.77,-9999.0,North,17.3,-,N/A,,Clear,360,2013-04-22 09:30:00
8:00 PM,57.2,50.0,77,29.77,-9999.0,North,15.0,-,N/A,,Clear,360,2013-04-22 10:00:00
8:30 PM,59.0,50.0,72,29.80,-9999.0,North,16.1,-,N/A,,Clear,360,2013-04-22 10:30:00
9:00 PM,58,49,65,29.80,19,North,17.3,,,,Partly Cloudy,0,2013-04-22 11:00:00
9:00 PM,59.0,50.0,72,29.80,-9999.0,North,17.3,-,N/A,,Clear,360,2013-04-22 11:00:00
9:30 PM,59.0,50.0,72,29.80,-9999.0,North,15.0,-,N/A,,Clear,10,2013-04-22 11:30:00
10:00 PM,58,50,66,29.79,,North,16.1,,,,,10,2013-04-22 12:00:00
10:00 PM,57.2,50.0,77,29.77,-9999.0,North,16.1,-,N/A,,Clear,10,2013-04-22 12:00:00
10:30 PM,59.0,50.0,72,29.77,-9999.0,North,15.0,-,N/A,,Clear,360,2013-04-22 12:30:00
11:00 PM,57.2,51.8,82,29.77,-9999.0,North,16.1,-,N/A,,Clear,360,2013-04-22 13:00:00
11:30 PM,59.0,50.0,72,29.77,-9999.0,North,15.0,-,N/A,,Clear,350,2013-04-22 13:30:00